Time,TemperatureF,DewpointF,PressureIn,WindDirection,WindDirectionDegrees,WindSpeedMPH,WindSpeedGustMPH,Humidity,HourlyPrecipIn,Conditions,Clouds,dailyrainin,SoftwareType,DateUTC
2013-12-18 00:03:00,3.0,-3.4,30.10,WNW,286,9.2,9.2,74,0.00,CLR,,0.00,WeatherDisplay:10.37,2013-12-18 06:03:00,
2013-12-18 00:08:00,2.8,-3.6,30.10,WNW,285,11.5,11.5,74,0.00,CLR,,0.00,WeatherDisplay:10.37,2013-12-18 06:08:00,
2013-12-18 00:13:00,2.6,-3.5,30.10,WNW,285,9.2,9.2,75,0.00,CLR,,0.00,WeatherDisplay:10.37,2013-12-18 06:13:00,
2013-12-18 00:18:00,2.4,-3.7,30.10,WNW,283,5.8,5.8,75,0.00,CLR,,0.00,WeatherDisplay:10.37,2013-12-18 06:18:00,
2013-12-18 00:23:00,2.2,-4.2,30.10,WNW,286,10.4,10.4,74,0.00,CLR,,0.00,WeatherDisplay:10.37,2013-12-18 06:23:00,
2013-12-18 00:28:00,2.0,-4.4,30.10,WNW,292,11.5,11.5,74,0.00,CLR,,0.00,WeatherDisplay:10.37,2013-12-18 06:28:00,
2013-12-18 00:33:00,1.8,-4.3,30.09,WNW,296,7.0,7.0,75,0.00,CLR,,0.00,WeatherDisplay:10.37,2013-12-18 06:33:00,
2013-12-18 00:38:00,1.7,-4.7,30.09,WNW,295,6.9,6.9,74,0.00,CLR,,0.00,WeatherDisplay:10.37,2013-12-18 06:38:00,
2013-12-18 00:43:00,1.5,-4.9,30.08,WNW,296,4.0,4.0,74,0.00,CLR,,0.00,WeatherDisplay:10.37,2013-12-18 06:43:00,
2013-12-18 00:48:00,1.3,-5.1,30.08,WNW,297,5.0,5.0,74,0.00,CLR,,0.00,WeatherDisplay:10.37,2013-12-18 06:48:00,
2013-12-18 00:53:00,1.1,-5.0,30.09,WNW,298,5.0,5.0,75,0.00,CLR,,0.00,WeatherDisplay:10.37,2013-12-18 06:53:00,
2013-12-18 00:58:00,1.1,-5.0,30.09,WNW,298,6.0,6.0,75,0.00,CLR,,0.00,WeatherDisplay:10.37,2013-12-18 06:58:00,
2013-12-18 01:03:00,0.9,-5.2,30.09,WNW,296,5.8,5.8,75,0.00,CLR,,0.00,WeatherDisplay:10.37,2013-12-18 07:03:00,
2013-12-18 01:08:00,0.7,-5.6,30.10,WNW,296,6.9,6.9,74,0.00,CLR,,0.00,WeatherDisplay:10.37,2013-12-18 07:08:00,
2013-12-18 01:13:00,0.5,-5.8,30.09,WNW,296,5.0,5.0,74,0.00,CLR,,0.00,WeatherDisplay:10.37,2013-12-18 07:13:00,
2013-12-18 01:18:00,0.3,-6.0,30.09,WNW,296,4.0,4.0,74,0.00,CLR,,0.00,WeatherDisplay:10.37,2013-12-18 07:18:00,
2013-12-18 01:23:00,0.0,-6.6,30.09,WNW,296,4.0,4.0,73,0.00,CLR,,0.00,WeatherDisplay:10.37,2013-12-18 07:23:00,
2013-12-18 01:28:00,-0.2,-6.8,30.09,West,277,6.0,6.0,73,0.00,CLR,,0.00,WeatherDisplay:10.37,2013-12-18 07:28:00,
2013-12-18 01:33:00,-0.4,-7.0,30.10,West,266,5.8,5.8,73,0.00,CLR,,0.00,WeatherDisplay:10.37,2013-12-18 07:33:00,
2013-12-18 01:38:00,-0.8,-7.7,30.09,West,266,7.0,7.0,72,0.00,CLR,,0.00,WeatherDisplay:10.37,2013-12-18 07:38:00,
2013-12-18 01:43:00,-1.2,-8.0,30.09,West,266,4.0,4.0,72,0.00,CLR,,0.00,WeatherDisplay:10.37,2013-12-18 07:43:00,
2013-12-18 01:48:00,-1.6,-8.4,30.09,West,266,3.5,3.5,72,0.00,CLR,,0.00,WeatherDisplay:10.37,2013-12-18 07:48:00,
2013-12-18 01:53:00,-1.8,-8.6,30.09,West,266,3.5,3.5,72,0.00,CLR,,0.00,WeatherDisplay:10.37,2013-12-18 07:53:00,
2013-12-18 01:58:00,-2.0,-8.8,30.08,West,266,2.3,2.3,72,0.00,CLR,,0.00,WeatherDisplay:10.37,2013-12-18 07:58:00,
2013-12-18 02:03:00,-2.2,-9.0,30.07,West,266,0.0,0.0,72,0.00,CLR,,0.00,WeatherDisplay:10.37,2013-12-18 08:03:00,
2013-12-18 02:08:00,-2.4,-9.2,30.07,West,266,2.3,2.3,72,0.00,CLR,,0.00,WeatherDisplay:10.37,2013-12-18 08:08:00,
2013-12-18 02:13:00,-2.6,-9.4,30.07,West,266,0.0,0.0,72,0.00,CLR,,0.00,WeatherDisplay:10.37,2013-12-18 08:13:00,
2013-12-18 02:18:00,-2.8,-9.6,30.07,West,266,0.0,0.0,72,0.00,CLR,,0.00,WeatherDisplay:10.37,2013-12-18 08:18:00,
2013-12-18 02:23:00,-3.1,-9.9,30.07,West,266,0.0,0.0,72,0.00,CLR,,0.00,WeatherDisplay:10.37,2013-12-18 08:23:00,
2013-12-18 02:28:00,-3.3,-10.1,30.08,West,266,2.3,2.3,72,0.00,CLR,,0.00,WeatherDisplay:10.37,2013-12-18 08:28:00,
2013-12-18 02:33:00,-3.5,-10.3,30.07,West,266,0.0,0.0,72,0.00,CLR,,0.00,WeatherDisplay:10.37,2013-12-18 08:33:00,
2013-12-18 02:38:00,-3.5,-10.3,30.07,West,266,2.3,2.3,72,0.00,CLR,,0.00,WeatherDisplay:10.37,2013-12-18 08:38:00,
2013-12-18 02:43:00,-3.7,-10.2,30.07,West,266,2.3,2.3,73,0.00,CLR,,0.00,WeatherDisplay:10.37,2013-12-18 08:43:00,
2013-12-18 02:48:00,-3.9,-10.4,30.06,West,266,3.5,3.5,73,0.00,CLR,,0.00,WeatherDisplay:10.37,2013-12-18 08:48:00,
2013-12-18 02:53:00,-4.1,-10.6,30.06,West,266,3.5,3.5,73,0.00,CLR,,0.00,WeatherDisplay:10.37,2013-12-18 08:53:00,
2013-12-18 02:58:00,-4.1,-10.6,30.07,West,266,3.5,3.5,73,0.00,CLR,,0.00,WeatherDisplay:10.37,2013-12-18 08:58:00,
2013-12-18 03:03:00,-4.3,-10.8,30.07,West,266,4.6,4.6,73,0.00,CLR,,0.00,WeatherDisplay:10.37,2013-12-18 09:03:00,
2013-12-18 03:08:00,-4.3,-10.8,30.07,WSW,255,6.0,6.0,73,0.00,CLR,,0.00,WeatherDisplay:10.37,2013-12-18 09:08:00,
2013-12-18 03:13:00,-4.6,-11.1,30.08,WSW,255,2.3,2.3,73,0.00,CLR,,0.00,WeatherDisplay:10.37,2013-12-18 09:13:00,
2013-12-18 03:18:00,-4.6,-11.1,30.07,WSW,255,2.3,2.3,73,0.00,CLR,,0.00,WeatherDisplay:10.37,2013-12-18 09:18:00,
2013-12-18 03:23:00,-4.8,-11.3,30.08,WSW,255,3.5,3.5,73,0.00,CLR,,0.00,WeatherDisplay:10.37,2013-12-18 09:23:00,
2013-12-18 03:28:00,-4.8,-11.0,30.08,WSW,255,2.3,2.3,74,0.00,CLR,,0.00,WeatherDisplay:10.37,2013-12-18 09:28:00,
2013-12-18 03:33:00,-5.0,-11.2,30.08,WSW,255,4.0,4.0,74,0.00,CLR,,0.00,WeatherDisplay:10.37,2013-12-18 09:33:00,
2013-12-18 03:38:00,-5.0,-11.2,30.07,WSW,255,4.0,4.0,74,0.00,CLR,,0.00,WeatherDisplay:10.37,2013-12-18 09:38:00,
2013-12-18 03:43:00,-5.2,-11.4,30.08,WSW,255,3.5,3.5,74,0.00,CLR,,0.00,WeatherDisplay:10.37,2013-12-18 09:43:00,
2013-12-18 03:48:00,-5.2,-11.4,30.08,WSW,255,5.0,5.0,74,0.00,CLR,,0.00,WeatherDisplay:10.37,2013-12-18 09:48:00,
2013-12-18 03:53:00,-5.2,-11.4,30.08,WSW,255,3.5,3.5,74,0.00,CLR,,0.00,WeatherDisplay:10.37,2013-12-18 09:53:00,
2013-12-18 03:58:00,-5.4,-11.6,30.08,WSW,255,4.0,4.0,74,0.00,CLR,,0.00,WeatherDisplay:10.37,2013-12-18 09:58:00,
2013-12-18 04:03:00,-5.4,-11.6,30.08,WSW,254,6.0,6.0,74,0.00,CLR,,0.00,WeatherDisplay:10.37,2013-12-18 10:03:00,
2013-12-18 04:08:00,-5.4,-11.6,30.08,WSW,247,5.0,5.0,74,0.00,CLR,,0.00,WeatherDisplay:10.37,2013-12-18 10:08:00,
2013-12-18 04:13:00,-5.6,-11.8,30.08,WSW,246,5.0,5.0,74,0.00,CLR,,0.00,WeatherDisplay:10.37,2013-12-18 10:13:00,
2013-12-18 04:18:00,-5.6,-11.8,30.08,WSW,246,5.8,5.8,74,0.00,CLR,,0.00,WeatherDisplay:10.37,2013-12-18 10:18:00,
2013-12-18 04:23:00,-5.6,-11.8,30.08,WSW,245,4.0,4.0,74,0.00,CLR,,0.00,WeatherDisplay:10.37,2013-12-18 10:23:00,
2013-12-18 04:28:00,-5.9,-12.0,30.07,WSW,245,3.5,3.5,74,0.00,CLR,,0.00,WeatherDisplay:10.37,2013-12-18 10:28:00,
2013-12-18 04:33:00,-5.9,-12.0,30.08,WSW,244,4.6,4.6,74,0.00,CLR,,0.00,WeatherDisplay:10.37,2013-12-18 10:33:00,
2013-12-18 04:38:00,-5.9,-12.0,30.07,WSW,244,4.0,4.0,74,0.00,CLR,,0.00,WeatherDisplay:10.37,2013-12-18 10:38:00,
2013-12-18 04:43:00,-6.1,-12.2,30.06,WSW,244,4.0,4.0,74,0.00,CLR,,0.00,WeatherDisplay:10.37,2013-12-18 10:43:00,
2013-12-18 04:48:00,-6.1,-12.2,30.07,WSW,244,3.5,3.5,74,0.00,CLR,,0.00,WeatherDisplay:10.37,2013-12-18 10:48:00,
2013-12-18 04:54:00,-6.3,-12.4,30.07,WSW,244,4.0,4.0,74,0.00,CLR,,0.00,WeatherDisplay:10.37,2013-12-18 10:54:00,
2013-12-18 04:59:00,-6.3,-12.4,30.06,WSW,244,4.0,4.0,74,0.00,CLR,,0.00,WeatherDisplay:10.37,2013-12-18 10:59:00,
2013-12-18 05:04:00,-6.3,-12.4,30.06,WSW,243,4.6,4.6,74,0.00,CLR,,0.00,WeatherDisplay:10.37,2013-12-18 11:04:00,
2013-12-18 05:09:00,-6.5,-12.6,30.06,WSW,240,4.6,4.6,74,0.00,CLR,,0.00,WeatherDisplay:10.37,2013-12-18 11:09:00,
2013-12-18 05:14:00,-6.5,-12.6,30.06,WSW,240,3.5,3.5,74,0.00,CLR,,0.00,WeatherDisplay:10.37,2013-12-18 11:14:00,
2013-12-18 05:20:00,-6.8,-12.9,30.06,WSW,240,2.0,3.0,74,0.00,CLR,CLR,0.00,WeatherDisplay:10.37,2013-12-18 11:20:00,
2013-12-18 05:25:00,-6.8,-12.9,30.05,SW,233,3.0,6.0,74,0.00,CLR,CLR,0.00,WeatherDisplay:10.37,2013-12-18 11:25:00,
2013-12-18 05:29:00,-6.9,-13.0,30.06,SW,217,5.0,7.0,74,0.00,CLR,CLR,0.00,WeatherDisplay:10.37,2013-12-18 11:29:00,
2013-12-18 05:34:00,-7.0,-13.1,30.06,SSW,212,3.0,5.0,74,0.00,CLR,CLR,0.00,WeatherDisplay:10.37,2013-12-18 11:34:00,
2013-12-18 05:39:00,-7.0,-13.1,30.06,SSW,204,6.0,7.0,74,0.00,CLR,CLR,0.00,WeatherDisplay:10.37,2013-12-18 11:39:00,
2013-12-18 05:45:00,-7.2,-13.3,30.06,SSW,193,6.0,8.0,74,0.00,CLR,CLR,0.00,WeatherDisplay:10.37,2013-12-18 11:45:00,
2013-12-18 05:50:00,-7.2,-13.3,30.06,South,190,5.0,9.0,74,0.00,CLR,CLR,0.00,WeatherDisplay:10.37,2013-12-18 11:50:00,
2013-12-18 05:54:00,-7.2,-13.3,30.06,SSW,195,6.0,9.0,74,0.00,CLR,CLR,0.00,WeatherDisplay:10.37,2013-12-18 11:54:00,
2013-12-18 05:59:00,-7.2,-12.5,30.06,SSW,196,8.0,13.0,77,0.00,CLR,CLR,0.00,WeatherDisplay:10.37,2013-12-18 11:59:00,
2013-12-18 06:04:00,-7.0,-12.6,30.05,South,189,7.0,9.0,76,0.00,CLR,CLR,0.00,WeatherDisplay:10.37,2013-12-18 12:04:00,
2013-12-18 06:10:00,-6.5,-11.6,30.05,South,184,5.0,8.0,78,0.00,CLR,CLR,0.00,WeatherDisplay:10.37,2013-12-18 12:10:00,
2013-12-18 06:14:00,-6.2,-11.0,30.05,South,184,5.0,7.0,79,0.00,CLR,CLR,0.00,WeatherDisplay:10.37,2013-12-18 12:14:00,
2013-12-18 06:20:00,-5.8,-10.4,30.05,South,184,5.0,8.0,80,0.00,CLR,CLR,0.00,WeatherDisplay:10.37,2013-12-18 12:20:00,
2013-12-18 06:24:00,-5.4,-10.0,30.05,South,185,5.0,9.0,80,0.00,CLR,CLR,0.00,WeatherDisplay:10.37,2013-12-18 12:24:00,
2013-12-18 06:30:00,-5.0,-9.6,30.04,South,184,6.0,9.0,80,0.00,CLR,CLR,0.00,WeatherDisplay:10.37,2013-12-18 12:30:00,
2013-12-18 06:34:00,-4.6,-8.9,30.04,South,182,7.0,9.0,81,0.00,CLR,CLR,0.00,WeatherDisplay:10.37,2013-12-18 12:34:00,
2013-12-18 06:40:00,-4.1,-8.5,30.04,South,181,7.0,9.0,81,0.00,CLR,CLR,0.00,WeatherDisplay:10.37,2013-12-18 12:40:00,
2013-12-18 06:44:00,-3.7,-8.1,30.03,South,181,6.0,8.0,81,0.00,CLR,CLR,0.00,WeatherDisplay:10.37,2013-12-18 12:44:00,
2013-12-18 06:50:00,-3.3,-7.7,30.03,South,179,6.0,9.0,81,0.00,CLR,CLR,0.00,WeatherDisplay:10.37,2013-12-18 12:50:00,
2013-12-18 06:54:00,-2.8,-7.2,30.03,South,178,5.0,9.0,81,0.00,CLR,CLR,0.00,WeatherDisplay:10.37,2013-12-18 12:54:00,
2013-12-18 07:00:00,-2.5,-6.9,30.03,South,179,8.0,10.0,81,0.00,CLR,CLR,0.00,WeatherDisplay:10.37,2013-12-18 13:00:00,
2013-12-18 07:04:00,-2.1,-6.5,30.03,South,180,7.0,9.0,81,0.00,CLR,CLR,0.00,WeatherDisplay:10.37,2013-12-18 13:04:00,
2013-12-18 07:10:00,-1.8,-6.2,30.02,South,178,8.0,9.0,81,0.00,CLR,CLR,0.00,WeatherDisplay:10.37,2013-12-18 13:10:00,
2013-12-18 07:15:00,-1.4,-5.8,30.02,South,176,7.0,10.0,81,0.00,CLR,CLR,0.00,WeatherDisplay:10.37,2013-12-18 13:15:00,
2013-12-18 07:20:00,-1.0,-5.2,30.02,South,176,7.0,10.0,82,0.00,CLR,CLR,0.00,WeatherDisplay:10.37,2013-12-18 13:20:00,
2013-12-18 07:24:00,-0.7,-4.9,30.02,South,179,7.0,10.0,82,0.00,CLR,CLR,0.00,WeatherDisplay:10.37,2013-12-18 13:24:00,
2013-12-18 07:30:00,-0.4,-4.6,30.02,South,178,5.0,12.0,82,0.00,CLR,CLR,0.00,WeatherDisplay:10.37,2013-12-18 13:30:00,
2013-12-18 07:34:00,-0.2,-4.4,30.01,South,176,8.0,12.0,82,0.00,CLR,CLR,0.00,WeatherDisplay:10.37,2013-12-18 13:34:00,
2013-12-18 07:40:00,0.1,-4.1,30.00,South,175,7.0,10.0,82,0.00,CLR,CLR,0.00,WeatherDisplay:10.37,2013-12-18 13:40:00,
2013-12-18 07:45:00,0.3,-3.9,30.00,South,173,11.5,11.5,82,0.00,CLR,,0.00,WeatherDisplay:10.37,2013-12-18 13:45:00,
2013-12-18 07:50:00,0.7,-3.5,30.00,South,175,9.0,9.0,82,0.00,CLR,,0.00,WeatherDisplay:10.37,2013-12-18 13:50:00,
2013-12-18 07:55:00,0.9,-3.3,29.99,SSE,165,6.9,6.9,82,0.00,CLR,,0.00,WeatherDisplay:10.37,2013-12-18 13:55:00,
2013-12-18 08:00:00,1.1,-3.1,29.99,SSE,167,8.1,8.1,82,0.00,CLR,,0.00,WeatherDisplay:10.37,2013-12-18 14:00:00,
2013-12-18 08:05:00,1.5,-2.7,29.98,SSE,165,8.1,8.1,82,0.00,CLR,,0.00,WeatherDisplay:10.37,2013-12-18 14:05:00,
2013-12-18 08:10:00,1.7,-2.5,29.97,SSE,160,10.4,10.4,82,0.00,CLR,,0.00,WeatherDisplay:10.37,2013-12-18 14:10:00,
2013-12-18 08:15:00,1.8,-2.4,29.97,SSE,157,9.2,9.2,82,0.00,CLR,,0.00,WeatherDisplay:10.37,2013-12-18 14:15:00,
2013-12-18 08:20:00,2.2,-2.0,29.97,SSE,163,9.2,9.2,82,0.00,CLR,,0.00,WeatherDisplay:10.37,2013-12-18 14:20:00,
2013-12-18 08:25:00,2.4,-1.8,29.97,SSE,158,9.2,9.2,82,0.00,CLR,,0.00,WeatherDisplay:10.37,2013-12-18 14:25:00,
2013-12-18 08:30:00,2.6,-1.6,29.97,SSE,152,12.7,12.7,82,0.00,CLR,,0.00,WeatherDisplay:10.37,2013-12-18 14:30:00,
2013-12-18 08:35:00,3.0,-1.0,29.96,SSE,162,10.4,10.4,83,0.00,CLR,,0.00,WeatherDisplay:10.37,2013-12-18 14:35:00,
2013-12-18 08:40:00,3.2,-0.8,29.96,SSE,160,13.0,13.0,83,0.00,CLR,,0.00,WeatherDisplay:10.37,2013-12-18 14:40:00,
2013-12-18 08:45:00,3.5,-0.5,29.96,SSE,147,11.5,11.5,83,0.00,CLR,,0.00,WeatherDisplay:10.37,2013-12-18 14:45:00,
2013-12-18 08:50:00,3.7,-0.3,29.95,SSE,150,10.4,10.4,83,0.00,CLR,,0.00,WeatherDisplay:10.37,2013-12-18 14:50:00,
2013-12-18 08:55:00,3.9,-0.1,29.95,SSE,150,12.0,12.0,83,0.00,CLR,,0.00,WeatherDisplay:10.37,2013-12-18 14:55:00,
2013-12-18 09:00:00,4.3,0.3,29.94,SSE,149,10.0,10.0,83,0.00,CLR,,0.00,WeatherDisplay:10.37,2013-12-18 15:00:00,
2013-12-18 09:05:00,4.5,0.5,29.94,SSE,150,11.5,11.5,83,0.00,CLR,,0.00,WeatherDisplay:10.37,2013-12-18 15:05:00,
2013-12-18 09:10:00,4.8,0.8,29.94,SSE,156,7.0,7.0,83,0.00,CLR,,0.00,WeatherDisplay:10.37,2013-12-18 15:10:00,
2013-12-18 09:15:00,5.0,1.0,29.94,SSE,157,12.0,12.0,83,0.00,CLR,,0.00,WeatherDisplay:10.37,2013-12-18 15:15:00,
2013-12-18 09:20:00,5.4,1.4,29.94,SSE,165,12.7,12.7,83,0.00,CLR,,0.00,WeatherDisplay:10.37,2013-12-18 15:20:00,
2013-12-18 09:25:00,5.6,1.8,29.94,SSE,161,11.5,11.5,84,0.00,CLR,,0.00,WeatherDisplay:10.37,2013-12-18 15:25:00,
2013-12-18 09:30:00,6.0,2.2,29.94,SSE,162,12.7,12.7,84,0.00,CLR,,0.00,WeatherDisplay:10.37,2013-12-18 15:30:00,
2013-12-18 09:35:00,6.1,2.3,29.93,SSE,155,11.0,11.0,84,0.00,CLR,,0.00,WeatherDisplay:10.37,2013-12-18 15:35:00,
2013-12-18 09:40:00,6.5,2.7,29.93,SSE,156,10.4,10.4,84,0.00,CLR,,0.00,WeatherDisplay:10.37,2013-12-18 15:40:00,
2013-12-18 09:45:00,6.7,2.9,29.93,SSE,151,9.2,9.2,84,0.00,CLR,,0.00,WeatherDisplay:10.37,2013-12-18 15:45:00,
2013-12-18 09:50:00,6.9,3.1,29.92,SSE,152,6.9,6.9,84,0.00,CLR,,0.00,WeatherDisplay:10.37,2013-12-18 15:50:00,
2013-12-18 09:55:00,7.2,3.4,29.93,SSE,160,9.2,9.2,84,0.00,CLR,,0.00,WeatherDisplay:10.37,2013-12-18 15:55:00,
2013-12-18 10:00:00,7.4,3.6,29.93,SSE,158,10.4,10.4,84,0.00,CLR,,0.00,WeatherDisplay:10.37,2013-12-18 16:00:00,
2013-12-18 10:05:00,7.6,3.8,29.92,SSE,152,10.4,10.4,84,0.00,CLR,,0.00,WeatherDisplay:10.37,2013-12-18 16:05:00,
2013-12-18 10:10:00,7.9,4.1,29.92,SE,144,8.1,8.1,84,0.00,CLR,,0.00,WeatherDisplay:10.37,2013-12-18 16:10:00,
2013-12-18 10:15:00,8.1,4.3,29.92,SSE,151,6.9,6.9,84,0.00,CLR,,0.00,WeatherDisplay:10.37,2013-12-18 16:15:00,
2013-12-18 10:20:00,8.4,4.6,29.92,SSE,154,11.5,11.5,84,0.00,CLR,,0.00,WeatherDisplay:10.37,2013-12-18 16:20:00,
2013-12-18 10:25:00,8.6,4.8,29.91,SSE,152,7.0,7.0,84,0.00,CLR,,0.00,WeatherDisplay:10.37,2013-12-18 16:25:00,
2013-12-18 10:30:00,9.0,5.1,29.91,SE,145,6.0,6.0,84,0.00,CLR,,0.00,WeatherDisplay:10.37,2013-12-18 16:30:00,
2013-12-18 10:35:00,9.3,5.7,29.90,SE,143,11.0,11.0,85,0.00,CLR,,0.00,WeatherDisplay:10.37,2013-12-18 16:35:00,
2013-12-18 10:40:00,9.7,6.1,29.89,SE,142,16.1,16.1,85,0.00,CLR,,0.00,WeatherDisplay:10.37,2013-12-18 16:40:00,
2013-12-18 10:45:00,10.0,6.4,29.89,SE,146,14.0,14.0,85,0.00,CLR,,0.00,WeatherDisplay:10.37,2013-12-18 16:45:00,
2013-12-18 10:50:00,10.4,6.8,29.88,SE,146,15.0,15.0,85,0.00,CLR,,0.00,WeatherDisplay:10.37,2013-12-18 16:50:00,
2013-12-18 10:55:00,10.7,7.1,29.88,SE,141,16.1,16.1,85,0.00,CLR,,0.00,WeatherDisplay:10.37,2013-12-18 16:55:00,
2013-12-18 11:00:00,11.1,7.5,29.87,SSE,155,13.0,13.0,85,0.00,CLR,,0.00,WeatherDisplay:10.37,2013-12-18 17:00:00,
2013-12-18 11:05:00,11.4,7.8,29.87,SE,142,16.1,16.1,85,0.00,CLR,,0.00,WeatherDisplay:10.37,2013-12-18 17:05:00,
2013-12-18 11:10:00,11.7,8.1,29.85,SSE,151,12.7,12.7,85,0.00,CLR,,0.00,WeatherDisplay:10.37,2013-12-18 17:10:00,
2013-12-18 11:15:00,12.1,8.7,29.85,SE,128,17.3,17.3,86,0.00,CLR,,0.00,WeatherDisplay:10.37,2013-12-18 17:15:00,
2013-12-18 11:20:00,12.4,9.0,29.85,SSE,156,11.5,11.5,86,0.00,CLR,,0.00,WeatherDisplay:10.37,2013-12-18 17:20:00,
2013-12-18 11:25:00,12.8,9.4,29.83,SSE,161,17.0,17.0,86,0.00,CLR,,0.00,WeatherDisplay:10.37,2013-12-18 17:25:00,
2013-12-18 11:30:00,13.1,9.7,29.83,SSE,163,16.1,16.1,86,0.00,CLR,,0.00,WeatherDisplay:10.37,2013-12-18 17:30:00,
2013-12-18 11:35:00,13.5,10.1,29.82,SSE,160,16.1,16.1,86,0.00,CLR,,0.00,WeatherDisplay:10.37,2013-12-18 17:35:00,
2013-12-18 11:40:00,13.8,10.6,29.82,SSE,163,18.0,18.0,87,0.00,CLR,,0.00,WeatherDisplay:10.37,2013-12-18 17:40:00,
2013-12-18 11:45:00,14.1,10.9,29.81,South,177,15.0,15.0,87,0.00,CLR,,0.00,WeatherDisplay:10.37,2013-12-18 17:45:00,
2013-12-18 11:50:00,14.4,11.2,29.81,South,169,16.1,16.1,87,0.00,CLR,,0.00,WeatherDisplay:10.37,2013-12-18 17:50:00,
2013-12-18 11:55:00,14.8,11.6,29.80,South,174,14.0,14.0,87,0.00,CLR,,0.00,WeatherDisplay:10.37,2013-12-18 17:55:00,
2013-12-18 12:00:00,15.2,12.0,29.80,South,181,12.0,12.0,87,0.00,CLR,,0.00,WeatherDisplay:10.37,2013-12-18 18:00:00,
2013-12-18 12:05:00,15.6,12.7,29.80,South,175,16.0,16.0,88,0.00,CLR,,0.00,WeatherDisplay:10.37,2013-12-18 18:05:00,
2013-12-18 12:10:00,16.1,13.2,29.80,SSW,198,19.6,19.6,88,0.00,CLR,,0.00,WeatherDisplay:10.37,2013-12-18 18:10:00,
2013-12-18 12:15:00,16.5,13.6,29.79,South,187,18.4,18.4,88,0.00,CLR,,0.00,WeatherDisplay:10.37,2013-12-18 18:15:00,
2013-12-18 12:20:00,17.0,14.1,29.79,South,175,16.1,16.1,88,0.00,CLR,,0.00,WeatherDisplay:10.37,2013-12-18 18:20:00,
2013-12-18 12:25:00,17.3,14.1,29.80,South,182,8.1,8.1,87,0.00,CLR,,0.00,WeatherDisplay:10.37,2013-12-18 18:25:00,
2013-12-18 12:30:00,17.7,14.2,29.80,SSE,159,9.0,9.0,86,0.00,CLR,,0.00,WeatherDisplay:10.37,2013-12-18 18:30:00,
2013-12-18 12:35:00,17.8,14.6,29.80,South,169,12.7,12.7,87,0.00,CLR,,0.00,WeatherDisplay:10.37,2013-12-18 18:35:00,
2013-12-18 12:40:00,18.1,14.9,29.80,SSW,197,10.4,10.4,87,0.00,CLR,,0.00,WeatherDisplay:10.37,2013-12-18 18:40:00,
2013-12-18 12:45:00,18.4,15.2,29.80,South,183,11.5,11.5,87,0.00,CLR,,0.00,WeatherDisplay:10.37,2013-12-18 18:45:00,
2013-12-18 12:50:00,18.8,15.3,29.79,SSE,160,16.1,16.1,86,0.00,CLR,,0.00,WeatherDisplay:10.37,2013-12-18 18:50:00,
2013-12-18 12:55:00,19.1,15.6,29.79,South,189,15.0,15.0,86,0.00,CLR,,0.00,WeatherDisplay:10.37,2013-12-18 18:55:00,
2013-12-18 13:00:00,19.2,15.4,29.78,SSE,160,12.0,12.0,85,0.00,CLR,,0.00,WeatherDisplay:10.37,2013-12-18 19:00:00,
2013-12-18 13:05:00,19.5,15.7,29.78,South,181,10.4,10.4,85,0.00,CLR,,0.00,WeatherDisplay:10.37,2013-12-18 19:05:00,
2013-12-18 13:10:00,19.7,15.6,29.78,South,182,11.5,11.5,84,0.00,CLR,,0.00,WeatherDisplay:10.37,2013-12-18 19:10:00,
2013-12-18 13:15:00,20.0,15.9,29.78,SSW,198,11.5,11.5,84,0.00,CLR,,0.00,WeatherDisplay:10.37,2013-12-18 19:15:00,
2013-12-18 13:20:00,20.2,16.1,29.78,SW,214,11.5,11.5,84,0.00,CLR,,0.00,WeatherDisplay:10.37,2013-12-18 19:20:00,
2013-12-18 13:25:00,20.3,16.2,29.77,SSW,208,6.9,6.9,84,0.00,CLR,,0.00,WeatherDisplay:10.37,2013-12-18 19:25:00,
2013-12-18 13:30:00,20.5,16.4,29.77,SSW,203,8.1,8.1,84,0.00,CLR,,0.00,WeatherDisplay:10.37,2013-12-18 19:30:00,
2013-12-18 13:35:00,20.6,16.5,29.77,SW,227,15.0,15.0,84,0.00,CLR,,0.00,WeatherDisplay:10.37,2013-12-18 19:35:00,
2013-12-18 13:40:00,21.0,16.9,29.77,SSW,192,9.2,9.2,84,0.00,CLR,,0.00,WeatherDisplay:10.37,2013-12-18 19:40:00,
2013-12-18 13:45:00,21.1,17.0,29.77,SW,220,10.4,10.4,84,0.00,CLR,,0.00,WeatherDisplay:10.37,2013-12-18 19:45:00,
2013-12-18 13:50:00,21.3,17.5,29.77,SSW,208,13.0,13.0,85,0.00,CLR,,0.00,WeatherDisplay:10.37,2013-12-18 19:50:00,
2013-12-18 13:55:00,21.4,17.6,29.77,SSW,192,15.0,15.0,85,0.00,CLR,,0.00,WeatherDisplay:10.37,2013-12-18 19:55:00,
2013-12-18 14:00:00,21.6,17.5,29.77,South,177,12.0,12.0,84,0.00,CLR,,0.00,WeatherDisplay:10.37,2013-12-18 20:00:00,
2013-12-18 14:05:00,21.8,17.7,29.77,SSW,213,9.2,9.2,84,0.00,CLR,,0.00,WeatherDisplay:10.37,2013-12-18 20:05:00,
2013-12-18 14:10:00,21.9,17.8,29.76,SW,228,8.1,8.1,84,0.00,CLR,,0.00,WeatherDisplay:10.37,2013-12-18 20:10:00,
2013-12-18 14:15:00,22.1,18.0,29.77,SSW,197,11.5,11.5,84,0.00,CLR,,0.00,WeatherDisplay:10.37,2013-12-18 20:15:00,
2013-12-18 14:20:00,22.2,18.1,29.76,SW,230,9.2,9.2,84,0.00,CLR,,0.00,WeatherDisplay:10.37,2013-12-18 20:20:00,
2013-12-18 14:25:00,22.2,18.1,29.76,SW,215,9.2,9.2,84,0.00,CLR,,0.00,WeatherDisplay:10.37,2013-12-18 20:25:00,
2013-12-18 14:30:00,22.4,18.3,29.76,South,180,9.0,9.0,84,0.00,CLR,,0.00,WeatherDisplay:10.37,2013-12-18 20:30:00,
2013-12-18 14:35:00,22.4,18.3,29.76,SW,224,8.1,8.1,84,0.00,CLR,,0.00,WeatherDisplay:10.37,2013-12-18 20:35:00,
2013-12-18 14:40:00,22.5,18.4,29.75,South,191,13.8,13.8,84,0.00,CLR,,0.00,WeatherDisplay:10.37,2013-12-18 20:40:00,
2013-12-18 14:45:00,22.5,18.4,29.74,South,189,14.0,14.0,84,0.00,CLR,,0.00,WeatherDisplay:10.37,2013-12-18 20:45:00,
2013-12-18 14:50:00,22.4,18.0,29.74,SSW,193,15.0,15.0,83,0.00,CLR,,0.00,WeatherDisplay:10.37,2013-12-18 20:50:00,
2013-12-18 14:55:00,22.4,17.7,29.74,South,190,9.0,9.0,82,0.00,CLR,,0.00,WeatherDisplay:10.37,2013-12-18 20:55:00,
2013-12-18 15:00:00,22.4,17.7,29.74,South,185,8.1,8.1,82,0.00,CLR,,0.00,WeatherDisplay:10.37,2013-12-18 21:00:00,
2013-12-18 15:05:00,22.4,18.0,29.74,SSW,213,11.5,11.5,83,0.00,CLR,,0.00,WeatherDisplay:10.37,2013-12-18 21:05:00,
2013-12-18 15:10:00,22.2,17.8,29.74,SSW,199,9.2,9.2,83,0.00,CLR,,0.00,WeatherDisplay:10.37,2013-12-18 21:10:00,
2013-12-18 15:15:00,22.2,17.8,29.74,SSW,213,6.9,6.9,83,0.00,CLR,,0.00,WeatherDisplay:10.37,2013-12-18 21:15:00,
2013-12-18 15:20:00,22.2,17.8,29.74,SSW,210,5.0,5.0,83,0.00,CLR,,0.00,WeatherDisplay:10.37,2013-12-18 21:20:00,
2013-12-18 15:25:00,22.1,17.7,29.74,SSW,194,5.8,5.8,83,0.00,CLR,,0.00,WeatherDisplay:10.37,2013-12-18 21:25:00,
2013-12-18 15:30:00,22.1,17.7,29.75,SSW,204,8.1,8.1,83,0.00,CLR,,0.00,WeatherDisplay:10.37,2013-12-18 21:30:00,
2013-12-18 15:35:00,21.9,17.5,29.75,SSW,207,6.9,6.9,83,0.00,CLR,,0.00,WeatherDisplay:10.37,2013-12-18 21:35:00,
2013-12-18 15:40:00,21.9,17.5,29.75,SSW,207,4.6,4.6,83,0.00,CLR,,0.00,WeatherDisplay:10.37,2013-12-18 21:40:00,
2013-12-18 15:45:00,21.8,17.4,29.75,SSW,209,9.2,9.2,83,0.00,CLR,,0.00,WeatherDisplay:10.37,2013-12-18 21:45:00,
2013-12-18 15:50:00,21.6,17.2,29.75,SSW,212,8.1,8.1,83,0.00,CLR,,0.00,WeatherDisplay:10.37,2013-12-18 21:50:00,
2013-12-18 15:55:00,21.4,17.0,29.74,SSW,208,8.0,8.0,83,0.00,CLR,,0.00,WeatherDisplay:10.37,2013-12-18 21:55:00,
2013-12-18 16:00:00,21.3,16.9,29.75,SSW,208,5.8,5.8,83,0.00,CLR,,0.00,WeatherDisplay:10.37,2013-12-18 22:00:00,
2013-12-18 16:05:00,21.1,16.7,29.75,SSW,210,6.9,6.9,83,0.00,CLR,,0.00,WeatherDisplay:10.37,2013-12-18 22:05:00,
2013-12-18 16:10:00,21.0,16.6,29.75,SSW,212,5.8,5.8,83,0.00,CLR,,0.00,WeatherDisplay:10.37,2013-12-18 22:10:00,
2013-12-18 16:15:00,20.8,16.5,29.74,SSW,212,4.0,4.0,83,0.00,CLR,,0.00,WeatherDisplay:10.37,2013-12-18 22:15:00,
2013-12-18 16:20:00,20.6,16.3,29.75,SSW,212,5.8,5.8,83,0.00,CLR,,0.00,WeatherDisplay:10.37,2013-12-18 22:20:00,
2013-12-18 16:25:00,20.5,16.2,29.75,SSW,212,5.8,5.8,83,0.00,CLR,,0.00,WeatherDisplay:10.37,2013-12-18 22:25:00,
2013-12-18 16:30:00,20.3,16.0,29.75,SSW,212,3.5,3.5,83,0.00,CLR,,0.00,WeatherDisplay:10.37,2013-12-18 22:30:00,
2013-12-18 16:35:00,20.0,15.7,29.74,SSW,212,3.5,3.5,83,0.00,CLR,,0.00,WeatherDisplay:10.37,2013-12-18 22:35:00,
2013-12-18 16:40:00,19.9,15.6,29.75,SSW,212,4.6,4.6,83,0.00,CLR,,0.00,WeatherDisplay:10.37,2013-12-18 22:40:00,
2013-12-18 16:45:00,19.7,15.4,29.75,SSW,212,4.0,4.0,83,0.00,CLR,,0.00,WeatherDisplay:10.37,2013-12-18 22:45:00,
2013-12-18 16:50:00,19.4,15.1,29.75,SSW,212,4.0,4.0,83,0.00,CLR,,0.00,WeatherDisplay:10.37,2013-12-18 22:50:00,
2013-12-18 16:55:00,19.2,14.6,29.75,SSW,212,4.0,4.0,82,0.00,CLR,,0.00,WeatherDisplay:10.37,2013-12-18 22:55:00,
2013-12-18 17:00:00,18.9,14.3,29.75,SSW,212,3.5,3.5,82,0.00,CLR,,0.00,WeatherDisplay:10.37,2013-12-18 23:00:00,
2013-12-18 17:05:00,18.8,14.2,29.75,SSW,212,3.5,3.5,82,0.00,CLR,,0.00,WeatherDisplay:10.37,2013-12-18 23:05:00,
2013-12-18 17:10:00,18.4,13.8,29.75,SSW,212,4.0,4.0,82,0.00,CLR,,0.00,WeatherDisplay:10.37,2013-12-18 23:10:00,
2013-12-18 17:15:00,18.3,13.7,29.75,SSW,212,4.0,4.0,82,0.00,CLR,,0.00,WeatherDisplay:10.37,2013-12-18 23:15:00,
2013-12-18 17:20:00,17.8,13.0,29.75,SSW,212,3.5,3.5,81,0.00,CLR,,0.00,WeatherDisplay:10.37,2013-12-18 23:20:00,
2013-12-18 17:25:00,17.5,12.7,29.75,SSW,212,4.6,4.6,81,0.00,CLR,,0.00,WeatherDisplay:10.37,2013-12-18 23:25:00,
2013-12-18 17:30:00,17.3,12.5,29.75,SSW,212,3.5,3.5,81,0.00,CLR,,0.00,WeatherDisplay:10.37,2013-12-18 23:30:00,
2013-12-18 17:35:00,17.0,12.2,29.75,SSW,212,4.0,4.0,81,0.00,CLR,,0.00,WeatherDisplay:10.37,2013-12-18 23:35:00,
2013-12-18 17:40:00,16.9,12.1,29.75,SSW,212,4.6,4.6,81,0.00,CLR,,0.00,WeatherDisplay:10.37,2013-12-18 23:40:00,
2013-12-18 17:45:00,16.5,11.7,29.75,SSW,212,6.0,6.0,81,0.00,CLR,,0.00,WeatherDisplay:10.37,2013-12-18 23:45:00,
2013-12-18 17:50:00,16.4,11.6,29.75,SSW,212,4.6,4.6,81,0.00,CLR,,0.00,WeatherDisplay:10.37,2013-12-18 23:50:00,
2013-12-18 17:55:00,16.1,11.3,29.75,SSW,212,4.0,4.0,81,0.00,CLR,,0.00,WeatherDisplay:10.37,2013-12-18 23:55:00,
2013-12-18 18:00:00,15.9,11.1,29.75,SSW,212,6.9,6.9,81,0.00,CLR,,0.00,WeatherDisplay:10.37,2013-12-19 00:00:00,
2013-12-18 18:05:00,15.6,10.8,29.75,SSW,212,3.5,3.5,81,0.00,CLR,,0.00,WeatherDisplay:10.37,2013-12-19 00:05:00,
2013-12-18 18:10:00,15.4,10.6,29.76,SSW,212,4.6,4.6,81,0.00,CLR,,0.00,WeatherDisplay:10.37,2013-12-19 00:10:00,
2013-12-18 18:16:00,15.1,10.3,29.76,SSW,212,4.6,4.6,81,0.00,CLR,,0.00,WeatherDisplay:10.37,2013-12-19 00:16:00,
2013-12-18 18:21:00,14.9,10.4,29.76,SSW,212,4.0,4.0,82,0.00,CLR,,0.00,WeatherDisplay:10.37,2013-12-19 00:21:00,
2013-12-18 18:26:00,14.8,10.3,29.76,SSW,212,3.5,3.5,82,0.00,CLR,,0.00,WeatherDisplay:10.37,2013-12-19 00:26:00,
2013-12-18 18:31:00,14.6,10.1,29.76,SSW,212,3.5,3.5,82,0.00,CLR,,0.00,WeatherDisplay:10.37,2013-12-19 00:31:00,
2013-12-18 18:36:00,14.4,9.9,29.76,SSW,212,3.5,3.5,82,0.00,CLR,,0.00,WeatherDisplay:10.37,2013-12-19 00:36:00,
2013-12-18 18:41:00,14.3,9.8,29.76,SSW,212,4.0,4.0,82,0.00,CLR,,0.00,WeatherDisplay:10.37,2013-12-19 00:41:00,
2013-12-18 18:46:00,14.3,9.8,29.76,SSW,212,3.5,3.5,82,0.00,CLR,,0.00,WeatherDisplay:10.37,2013-12-19 00:46:00,
2013-12-18 18:51:00,14.1,9.6,29.77,SSW,212,4.6,4.6,82,0.00,CLR,,0.00,WeatherDisplay:10.37,2013-12-19 00:51:00,
2013-12-18 18:56:00,14.0,9.5,29.77,SSW,212,4.6,4.6,82,0.00,CLR,,0.00,WeatherDisplay:10.37,2013-12-19 00:56:00,
2013-12-18 19:01:00,13.8,9.3,29.78,SSW,212,3.5,3.5,82,0.00,CLR,,0.00,WeatherDisplay:10.37,2013-12-19 01:01:00,
2013-12-18 19:06:00,13.8,9.3,29.78,SSW,212,3.5,3.5,82,0.00,CLR,,0.00,WeatherDisplay:10.37,2013-12-19 01:06:00,
2013-12-18 19:11:00,13.6,9.4,29.78,SSW,212,2.3,2.3,83,0.00,CLR,,0.00,WeatherDisplay:10.37,2013-12-19 01:11:00,
2013-12-18 19:16:00,13.5,9.3,29.78,SSW,212,2.3,2.3,83,0.00,CLR,,0.00,WeatherDisplay:10.37,2013-12-19 01:16:00,
2013-12-18 19:21:00,13.5,9.3,29.78,SSW,212,3.5,3.5,83,0.00,CLR,,0.00,WeatherDisplay:10.37,2013-12-19 01:21:00,
2013-12-18 19:26:00,13.3,9.1,29.78,SSW,212,3.5,3.5,83,0.00,CLR,,0.00,WeatherDisplay:10.37,2013-12-19 01:26:00,
2013-12-18 19:31:00,13.3,9.1,29.78,SSW,212,4.0,4.0,83,0.00,CLR,,0.00,WeatherDisplay:10.37,2013-12-19 01:31:00,
2013-12-18 19:36:00,13.1,8.9,29.78,SSW,212,4.6,4.6,83,0.00,CLR,,0.00,WeatherDisplay:10.37,2013-12-19 01:36:00,
2013-12-18 19:41:00,12.9,8.7,29.78,SSW,212,3.5,3.5,83,0.00,CLR,,0.00,WeatherDisplay:10.37,2013-12-19 01:41:00,
2013-12-18 19:46:00,12.9,8.7,29.78,SSW,212,2.3,2.3,83,0.00,CLR,,0.00,WeatherDisplay:10.37,2013-12-19 01:46:00,
2013-12-18 19:51:00,12.8,8.6,29.78,SSW,212,3.5,3.5,83,0.00,CLR,,0.00,WeatherDisplay:10.37,2013-12-19 01:51:00,
2013-12-18 19:56:00,12.6,8.4,29.78,SSW,212,2.3,2.3,83,0.00,CLR,,0.00,WeatherDisplay:10.37,2013-12-19 01:56:00,
2013-12-18 20:01:00,12.6,8.4,29.77,SSW,212,2.3,2.3,83,0.00,CLR,,0.00,WeatherDisplay:10.37,2013-12-19 02:01:00,
2013-12-18 20:06:00,12.4,8.2,29.78,SSW,212,3.0,3.0,83,0.00,CLR,,0.00,WeatherDisplay:10.37,2013-12-19 02:06:00,
2013-12-18 20:11:00,12.4,8.2,29.78,SSW,212,3.5,3.5,83,0.00,CLR,,0.00,WeatherDisplay:10.37,2013-12-19 02:11:00,
2013-12-18 20:16:00,12.3,8.1,29.78,SSW,212,3.0,3.0,83,0.00,CLR,,0.00,WeatherDisplay:10.37,2013-12-19 02:16:00,
2013-12-18 20:21:00,12.1,7.9,29.78,SSW,212,3.5,3.5,83,0.00,CLR,,0.00,WeatherDisplay:10.37,2013-12-19 02:21:00,
2013-12-18 20:26:00,12.1,7.9,29.78,SSW,212,2.3,2.3,83,0.00,CLR,,0.00,WeatherDisplay:10.37,2013-12-19 02:26:00,
2013-12-18 20:31:00,11.9,7.7,29.78,SSW,212,3.5,3.5,83,0.00,CLR,,0.00,WeatherDisplay:10.37,2013-12-19 02:31:00,
2013-12-18 20:36:00,11.9,7.7,29.78,SSW,212,3.5,3.5,83,0.00,CLR,,0.00,WeatherDisplay:10.37,2013-12-19 02:36:00,
2013-12-18 20:41:00,11.7,7.5,29.78,SSW,212,3.5,3.5,83,0.00,CLR,,0.00,WeatherDisplay:10.37,2013-12-19 02:41:00,
2013-12-18 20:46:00,11.6,7.4,29.78,SSW,212,3.5,3.5,83,0.00,CLR,,0.00,WeatherDisplay:10.37,2013-12-19 02:46:00,
2013-12-18 20:51:00,11.4,7.0,29.79,SSW,212,2.3,2.3,82,0.00,CLR,,0.00,WeatherDisplay:10.37,2013-12-19 02:51:00,
2013-12-18 20:56:00,11.4,7.0,29.79,SSW,212,4.0,4.0,82,0.00,CLR,,0.00,WeatherDisplay:10.37,2013-12-19 02:56:00,
2013-12-18 21:01:00,11.2,6.8,29.79,SSW,212,3.5,3.5,82,0.00,CLR,,0.00,WeatherDisplay:10.37,2013-12-19 03:01:00,
2013-12-18 21:06:00,11.1,6.7,29.79,SSW,212,3.5,3.5,82,0.00,CLR,,0.00,WeatherDisplay:10.37,2013-12-19 03:06:00,
2013-12-18 21:11:00,10.9,6.5,29.79,SSW,212,4.0,4.0,82,0.00,CLR,,0.00,WeatherDisplay:10.37,2013-12-19 03:11:00,
2013-12-18 21:16:00,10.9,6.5,29.79,SSW,212,3.5,3.5,82,0.00,CLR,,0.00,WeatherDisplay:10.37,2013-12-19 03:16:00,
2013-12-18 21:21:00,10.7,6.3,29.80,SSW,212,3.5,3.5,82,0.00,CLR,,0.00,WeatherDisplay:10.37,2013-12-19 03:21:00,
2013-12-18 21:26:00,10.5,6.1,29.80,SSW,212,3.5,3.5,82,0.00,CLR,,0.00,WeatherDisplay:10.37,2013-12-19 03:26:00,
2013-12-18 21:31:00,10.4,6.0,29.80,SSW,212,2.3,2.3,82,0.00,CLR,,0.00,WeatherDisplay:10.37,2013-12-19 03:31:00,
2013-12-18 21:36:00,10.2,5.8,29.81,SSW,212,4.0,4.0,82,0.00,CLR,,0.00,WeatherDisplay:10.37,2013-12-19 03:36:00,
2013-12-18 21:41:00,10.0,5.6,29.81,SSW,212,4.0,4.0,82,0.00,CLR,,0.00,WeatherDisplay:10.37,2013-12-19 03:41:00,
2013-12-18 21:46:00,9.9,5.5,29.80,SSW,212,4.0,4.0,82,0.00,CLR,,0.00,WeatherDisplay:10.37,2013-12-19 03:46:00,
2013-12-18 21:51:00,9.9,5.2,29.80,SSW,212,4.0,4.0,81,0.00,CLR,,0.00,WeatherDisplay:10.37,2013-12-19 03:51:00,
2013-12-18 21:56:00,9.7,5.0,29.81,SSW,212,4.0,4.0,81,0.00,CLR,,0.00,WeatherDisplay:10.37,2013-12-19 03:56:00,
2013-12-18 22:01:00,9.5,4.8,29.81,SSW,212,4.0,4.0,81,0.00,CLR,,0.00,WeatherDisplay:10.37,2013-12-19 04:01:00,
2013-12-18 22:06:00,9.3,4.6,29.81,SSW,212,4.6,4.6,81,0.00,CLR,,0.00,WeatherDisplay:10.37,2013-12-19 04:06:00,
2013-12-18 22:11:00,9.2,4.6,29.81,SSW,212,4.0,4.0,81,0.00,CLR,,0.00,WeatherDisplay:10.37,2013-12-19 04:11:00,
2013-12-18 22:16:00,9.0,4.4,29.80,SSW,212,3.5,3.5,81,0.00,CLR,,0.00,WeatherDisplay:10.37,2013-12-19 04:16:00,
2013-12-18 22:21:00,8.8,4.2,29.80,SSW,213,4.0,4.0,81,0.00,CLR,,0.00,WeatherDisplay:10.37,2013-12-19 04:21:00,
2013-12-18 22:26:00,8.6,4.0,29.81,SW,215,3.5,3.5,81,0.00,CLR,,0.00,WeatherDisplay:10.37,2013-12-19 04:26:00,
2013-12-18 22:31:00,8.6,4.0,29.82,SW,215,3.0,3.0,81,0.00,CLR,,0.00,WeatherDisplay:10.37,2013-12-19 04:31:00,
2013-12-18 22:36:00,8.4,3.8,29.82,SW,215,3.5,3.5,81,0.00,CLR,,0.00,WeatherDisplay:10.37,2013-12-19 04:36:00,
2013-12-18 22:41:00,8.3,3.7,29.83,SW,215,4.6,4.6,81,0.00,CLR,,0.00,WeatherDisplay:10.37,2013-12-19 04:41:00,
2013-12-18 22:46:00,8.3,3.7,29.83,West,261,6.0,6.0,81,0.00,CLR,,0.00,WeatherDisplay:10.37,2013-12-19 04:46:00,
2013-12-18 22:51:00,8.1,3.5,29.84,West,266,5.8,5.8,81,0.00,CLR,,0.00,WeatherDisplay:10.37,2013-12-19 04:51:00,
2013-12-18 22:56:00,7.9,3.3,29.84,West,271,5.0,5.0,81,0.00,CLR,,0.00,WeatherDisplay:10.37,2013-12-19 04:56:00,
2013-12-18 23:01:00,7.9,3.0,29.84,West,271,5.0,5.0,80,0.00,CLR,,0.00,WeatherDisplay:10.37,2013-12-19 05:01:00,
2013-12-18 23:02:00,7.7,2.8,29.84,West,271,4.6,4.6,80,0.00,CLR,,0.00,WeatherDisplay:10.37,2013-12-19 05:02:00,
2013-12-18 23:03:00,7.7,2.8,29.85,West,271,6.0,6.0,80,0.00,CLR,,0.00,WeatherDisplay:10.37,2013-12-19 05:03:00,
2013-12-18 23:06:00,7.7,2.8,29.85,West,279,5.8,5.8,80,0.00,CLR,,0.00,WeatherDisplay:10.37,2013-12-19 05:06:00,
2013-12-18 23:11:00,7.6,2.7,29.85,WNW,283,4.6,4.6,80,0.00,CLR,,0.00,WeatherDisplay:10.37,2013-12-19 05:11:00,
2013-12-18 23:16:00,7.4,2.5,29.85,WNW,283,3.5,3.5,80,0.00,CLR,,0.00,WeatherDisplay:10.37,2013-12-19 05:16:00,
2013-12-18 23:21:00,7.4,2.8,29.85,WNW,283,3.5,3.5,81,0.00,CLR,,0.00,WeatherDisplay:10.37,2013-12-19 05:21:00,
2013-12-18 23:26:00,7.2,2.6,29.85,WNW,283,3.5,3.5,81,0.00,CLR,,0.00,WeatherDisplay:10.37,2013-12-19 05:26:00,
2013-12-18 23:31:00,7.2,2.6,29.85,WNW,283,3.5,3.5,81,0.00,CLR,,0.00,WeatherDisplay:10.37,2013-12-19 05:31:00,
2013-12-18 23:36:00,7.0,2.4,29.85,WNW,283,4.0,4.0,81,0.00,CLR,,0.00,WeatherDisplay:10.37,2013-12-19 05:36:00,
2013-12-18 23:41:00,7.0,2.4,29.85,WNW,283,2.3,2.3,81,0.00,CLR,,0.00,WeatherDisplay:10.37,2013-12-19 05:41:00,
2013-12-18 23:46:00,7.0,2.4,29.85,WNW,283,3.5,3.5,81,0.00,CLR,,0.00,WeatherDisplay:10.37,2013-12-19 05:46:00,
2013-12-18 23:51:00,6.9,2.6,29.85,WNW,284,2.3,2.3,82,0.00,CLR,,0.00,WeatherDisplay:10.37,2013-12-19 05:51:00,
2013-12-18 23:56:00,6.9,2.6,29.86,WNW,284,0.0,0.0,82,0.00,CLR,,0.00,WeatherDisplay:10.37,2013-12-19 05:56:00,